Volver al catálogo

STARLINK-11452

ActivoComunicacionesVLEO
NORAD 62511·PAYLOAD·🇺🇸 United States

Lanzado Jan 8, 2025 desde Cape Canaveral Space Force Station

Loading…

Próximos Pases (próximas 24 horas)

TLE

ActualizadoSource: CelesTrak SupGP

Época: Sep 15, 2026, 02:49 UTC

1 62511C 25004A   26258.11784722 -.00066674  00000+0 -51793-3 0  2587
2 62511  43.0011   8.8893 0001678 260.5325   4.9677 15.70868123    12

Sigue STARLINK-11452 en tiempo real con AllMySat

Download on the App Store